Retour au catalogue

STARLINK-34707

ActifCommunicationsSSO
NORAD 65176·PAYLOAD·🇺🇸 United States

Lancé Aug 14, 2025 depuis Vandenberg Space Force Base

Loading…

Prochains Passages (prochaines 24 heures)

TLE

FraisSource: CelesTrak SupGP

Époque: Sep 15, 2026, 02:24 UTC

1 65176C 25175C   26258.10048611  .00053610  00000+0  16639-2 0  2588
2 65176  97.2846 127.1090 0002227  86.2956 227.7136 15.33416673    10

Suivez STARLINK-34707 en temps réel avec AllMySat

Download on the App Store